sat.trackr.live / text

‹ back to catalog

2026-134D

NORAD 69541 · 2026-134D

PAYLOAD ACTIVE UNKNOWN

§ Identity

Operator
Country
PRC
Launch date
2026-06-15
Launch site
JSC
Launch vehicle
Mass (kg)
RCS (m²)

External: N2YO · Heavens-Above · Gunter

§ Orbital elements

Epoch: 2026-09-19T12:05:24.374112Z

Period
95.41 min
Inclination
97.6945°
Eccentricity
0.0019137
Mean motion
15.09227020 rev/d
Perigee alt
525.3 km
Apogee alt
551.8 km
Semi-major
6,916.7 km
B*
1.5434e-4
RAAN
333.0270°
Arg perigee
312.8655°
Mean anomaly
47.0965°
Rev number
1,453

§ Raw data

2026-134D1 69541U 26134D   26262.50375433  .00002398  00000+0  15434-3 0  99902 69541  97.6945 333.0270 0019137 312.8655  47.0965 15.09227020 14538

JSON: /api/v1/satellites/69541 · /tle

For live sub-satellite position, see the globe view (requires WebGL).

§ Visibility from observer

Set your observer location to see the next 7 days of passes ≥ 10°. The values pass through the URL so the page stays shareable.

No JS? Fill the form by hand. The geolocation button needs JavaScript.